Orbital Elements at Epoch 2459200.5 (2020-Dec-17.0) TDB
Reference: JPL 35 (heliocentric ecliptic J2000)
Element | Value | Uncertainty (1-sigma) | Units |
e | .1418887579806157 | 8.8794e-09 | |
a | 2.647472165539806 | 1.0016e-08 | au |
q | 2.271825628183112 | 2.3182e-08 | au |
i | 12.07713660307024 | 4.9264e-07 | deg |
node | 190.8225157512431 | 9.8098e-07 | deg |
peri | 268.7038096373854 | 7.2853e-06 | deg |
M | 81.98141258827009 | 6.2973e-06 | deg |
tp | 2458842.190413726884 (2019-Dec-24.69041373) | 2.7168e-05 | TDB |
period | 1573.423133194194 4.31 | 8.9286e-06 2.445e-08 | d yr |
n | .2288005002628675 | 1.2984e-09 | deg/d |
Q | 3.023118702896501 | 1.1437e-08 | au |
|
| | Orbit Determination Parameters
Additional Information
|